Newark, NJ

1:19 AM EDT on September 20, 2017 (GMT -0400)
Newark International

Weather History for KEWR - October, 2011

Change the Weather History Date:

Saturday, October 29, 2011

  Actual Average Record
Temperature  
Mean Temperature 40 °F 52 °F  
Max Temperature 46 °F 61 °F 78 °F (1971)
Min Temperature 33 °F 44 °F 30 °F (1965)
Degree Days  
Heating Degree Days 25 13  
Month to date heating degree days 182 250  
Since 1 July heating degree days 201 295  
Cooling Degree Days 0 0  
Month to date cooling degree days 22 14  
Year to date cooling degree days 1585 1188  
Moisture  
Dew Point 33 °F    
Average Humidity 75    
Maximum Humidity 100    
Minimum Humidity 49    
Precipitation  
Precipitation 1.81 in 0.11 in 3.04 in (1973)
Month to date precipitation 5.80 3.37  
Year to date precipitation 61.87 38.56  
Snow  
Snow 5.20 in 0.00 in T in (2002)
Month to date snowfall 5.2 0.0  
Since 1 July snowfall 5.2 0.0  
Snow Depth 0.00 in    
Sea Level Pressure  
Sea Level Pressure 30.03 in    
Wind  
Wind Speed 15 mph (NNE)    
Max Wind Speed 24 mph    
Max Gust Speed 30 mph    
Visibility 4 miles    
Events Fog , Rain , Snow    
T = Trace of Precipitation, MM = Missing Value Source: NWS Daily Summary

Daily Weather History Graph

Daily Weather History Graph

Search for Another Location

Airport or City:

Trip Planner

Search our weather history database for the weather conditions in past years. The results will help you decide how hot, cold, wet, or windy it might be!

Date:

Astronomy

Oct. 29, 2011 Rise Set
Actual Time 7:23 AM EDT 5:57 PM EDT
Civil Twilight 6:54 AM EDT 6:25 PM EDT
Nautical Twilight 6:22 AM EDT 6:57 PM EDT
Astronomical Twilight 5:50 AM EDT 7:29 PM EDT
Moon 10:43 AM EDT (10/29) 8:16 PM EDT (10/29)
Length of Visible Light 11h 30m
Length of Day
10h 33m
Waxing Crescent, 11% of the Moon is Illuminated
Oct 29
Waxing Crescent
Nov 2
First Quarter
Nov 10
Full
Nov 18
Last Quarter
Nov 25
New

Hourly Weather History & Observations

Time (EDT) Temp. Windchill Dew Point Humidity Pressure Visibility Wind Dir Wind Speed Gust Speed Precip Events Conditions
12:51 AM 46.0 °F 41.9 °F 30.9 °F 56% 30.24 in 10.0 mi NNE 8.1 mph - N/A   Overcast
1:51 AM 46.0 °F 41.0 °F 28.0 °F 50% 30.22 in 10.0 mi NNE 10.4 mph - N/A   Overcast
2:51 AM 46.0 °F 41.4 °F 28.9 °F 51% 30.21 in 10.0 mi NNE 9.2 mph - N/A   Overcast
3:51 AM 45.0 °F 40.6 °F 28.9 °F 53% 30.20 in 10.0 mi NNE 8.1 mph - N/A   Overcast
4:51 AM 44.6 °F 38.4 °F 32.0 °F 61% 30.20 in 10.0 mi NNE 12.7 mph - N/A Rain Light Rain
5:51 AM 43.0 °F 36.0 °F 33.1 °F 68% 30.18 in 10.0 mi NNE 13.8 mph - 0.00 in Rain Light Rain
6:43 AM 44.6 °F 39.7 °F 33.8 °F 66% 30.16 in 10.0 mi NNE 9.2 mph - 0.00 in Rain Light Rain
6:51 AM 44.1 °F 39.5 °F 33.1 °F 65% 30.15 in 10.0 mi NE 8.1 mph - 0.00 in Rain Light Rain
7:51 AM 44.1 °F 38.1 °F 34.0 °F 68% 30.14 in 9.0 mi NNE 11.5 mph - 0.02 in Rain Light Rain
8:51 AM 43.0 °F 36.0 °F 36.0 °F 76% 30.14 in 7.0 mi NE 13.8 mph - 0.03 in Rain Light Rain
9:51 AM 41.0 °F 31.9 °F 35.1 °F 79% 30.11 in 4.0 mi NNE 19.6 mph 25.3 mph 0.08 in Rain Rain
10:40 AM 37.4 °F 27.2 °F 33.8 °F 87% 30.09 in 3.0 mi NNE 19.6 mph 29.9 mph 0.12 in Rain Rain
10:51 AM 37.9 °F 27.6 °F 34.0 °F 86% 30.08 in 3.0 mi NNE 20.7 mph 25.3 mph 0.15 in Rain , Snow Rain
11:01 AM 37.4 °F 27.5 °F 33.8 °F 87% 30.09 in 3.0 mi NNE 18.4 mph 26.5 mph 0.03 in Rain , Snow Rain
11:17 AM 35.6 °F 25.2 °F 32.0 °F 87% 30.08 in 2.0 mi NNE 18.4 mph 27.6 mph 0.07 in Rain , Snow Snow
11:41 AM 33.8 °F 24.3 °F 32.0 °F 93% 30.07 in 0.8 mi NNE 13.8 mph - 0.14 in Snow Snow
11:51 AM 34.0 °F 24.2 °F 32.0 °F 92% 30.07 in 0.8 mi NNE 15.0 mph - 0.15 in Snow Light Snow
12:10 PM 33.8 °F 22.8 °F 30.2 °F 87% 30.04 in 0.5 mi NNE 18.4 mph - 0.06 in Fog , Snow Snow
12:26 PM 33.8 °F 22.5 °F 30.2 °F 87% 30.03 in 0.2 mi North 19.6 mph - N/A Fog , Snow Heavy Snow
12:51 PM 33.1 °F 22.2 °F 32.0 °F 96% 30.02 in 0.2 mi NNE 17.3 mph 23.0 mph 0.18 in Fog , Snow Snow
1:51 PM 33.1 °F 21.9 °F 32.0 °F 96% 29.94 in 0.5 mi NNE 18.4 mph - 0.15 in Snow Light Snow
2:51 PM 33.1 °F 21.9 °F 33.1 °F 100% 29.89 in 0.5 mi North 18.4 mph - 0.14 in Snow Light Snow
3:51 PM 34.0 °F 23.4 °F 32.0 °F 92% 29.89 in 0.5 mi NNE 17.3 mph 28.8 mph 0.20 in Snow Light Snow
4:51 PM 34.0 °F 23.8 °F 33.1 °F 96% 29.87 in 0.5 mi North 16.1 mph - 0.11 in Snow Light Snow
5:39 PM 33.8 °F 23.5 °F 33.8 °F 100% 29.87 in 1.0 mi North 16.1 mph - 0.09 in Snow Light Snow
5:51 PM 34.0 °F 23.0 °F 34.0 °F 100% 29.88 in 1.0 mi North 18.4 mph 25.3 mph 0.11 in Snow Light Snow
6:42 PM 35.6 °F 25.5 °F 33.8 °F 93% 29.88 in 2.0 mi North 17.3 mph 27.6 mph 0.08 in Rain , Snow Light Snow
6:51 PM 35.1 °F 24.5 °F 34.0 °F 96% 29.88 in 2.0 mi North 18.4 mph 25.3 mph 0.09 in Rain , Snow Light Snow
7:51 PM 35.1 °F 24.1 °F 34.0 °F 96% 29.88 in 1.5 mi North 19.6 mph 26.5 mph 0.10 in Snow Light Snow
8:51 PM 35.1 °F 25.2 °F 34.0 °F 96% 29.88 in 3.0 mi NNW 16.1 mph - 0.06 in Snow Light Snow
9:51 PM 35.1 °F 24.5 °F 34.0 °F 96% 29.91 in 3.0 mi North 18.4 mph - 0.08 in Snow Light Snow
10:51 PM 35.1 °F 25.2 °F 34.0 °F 96% 29.92 in 2.5 mi NNW 16.1 mph - 0.09 in Snow Light Snow
11:39 PM 35.6 °F 24.8 °F 33.8 °F 93% 29.92 in 3.0 mi NNW 19.6 mph 25.3 mph 0.04 in Snow Light Snow
11:51 PM 35.1 °F 25.5 °F 33.1 °F 92% 29.92 in 3.0 mi NNW 15.0 mph - 0.05 in Snow Light Snow